Find Think Orbital F2

NORAD ID: 62380 Int'l Des: NNA 2024-247 Owner: THINK Country: US operational
LEOCIRCULAR

リアルタイム位置

3D地球を読み込み中...

Think Orbital F2について

説明を読み込み中...

次回通過

Passes for default location (London). Set your location on the main map for personalized predictions.

高度履歴

Loading altitude history...

軌道要素

1 62380U 24247D 26106.73001649 .00005595 00000-0 19984-3 0 9991
2 62380 44.9944 266.4658 0004868 255.2858 104.7486 15.29887224 73584
Epoch: Apr 16, 2026 • Age: 21 hours

現在のステータス

高度 481.6 km
速度 7.63 km/s
衛星直下点 -29.79°S, 47.51°E
打ち上げ日 Dec 21, 2024
運用期間 1.3 years
タイプ other

技術仕様

分類 Payload
質量 20.00 kg
乾燥質量 20.00 kg
総質量 20.00 kg
長さ 0.30 m
直径 0.20 m
スパン 2.00 m
形状 Box+2 pan
製造者 THINK
バスタイプ Cubesat 12U
フェーズステータス In Orbit
所有者/国 THINK/US

Most Searched